�������l�o���
Date,Time,MP-1(��Sv/h),MP-2(��Sv/h),MP-3(��Sv/h),MP-4(��Sv/h),MP-5(��Sv/h),MP-6(��Sv/h),MP-7(��Sv/h),MP-8(��Sv/h),����,����(m/s),���J
2014/03/24,00:00,2.4,4.3,4.8,4.3,4.5,2.0,2.5,2.7,���k��,0.5,��
2014/03/24,00:10,2.4,4.3,4.8,4.3,4.5,2.0,2.5,2.7,��,0.6,��
2014/03/24,00:20,2.4,4.3,4.8,4.3,4.5,2.0,2.5,2.7,���쐼,1.4,��
2014/03/24,00:30,2.4,4.3,4.8,4.3,4.5,2.0,2.5,2.7,�쐼,1.5,��
2014/03/24,00:40,2.4,4.3,4.8,4.3,4.5,2.0,2.5,2.7,�쐼,1.1,��
2014/03/24,00:50,2.4,4.3,4.8,4.3,4.5,2.0,2.5,2.7,��쐼,1.2,��
2014/03/24,01:00,2.4,4.3,4.8,4.3,4.5,2.0,2.5,2.7,�쐼,1.1,��
2014/03/24,01:10,2.4,4.3,4.8,4.3,4.5,2.0,2.5,2.7,�쐼,1.6,��
2014/03/24,01:20,2.4,4.3,4.8,4.3,4.5,2.0,2.5,2.7,��쐼,2.5,��
2014/03/24,01:30,2.4,4.3,4.8,4.3,4.5,2.0,2.5,2.7,��쐼,2.4,��
2014/03/24,01:40,2.4,4.3,4.8,4.3,4.5,2.0,2.5,2.7,�쐼,2.7,��
2014/03/24,01:50,2.4,4.3,4.8,4.3,4.5,2.0,2.5,2.7,�쐼,2.3,��
2014/03/24,02:00,2.4,4.3,4.8,4.3,4.5,2.0,2.5,2.7,�쐼,2.4,��
2014/03/24,02:10,2.4,4.3,4.8,4.3,4.5,2.0,2.5,2.7,���쐼,2.3,��
2014/03/24,02:20,2.4,4.3,4.8,4.3,4.5,2.0,2.5,2.7,���쐼,1.7,��
2014/03/24,02:30,2.4,4.3,4.8,4.3,4.5,2.0,2.5,2.7,��,2.2,��
2014/03/24,02:40,2.4,4.3,4.8,4.3,4.5,2.0,2.5,2.7,��,1.0,��
2014/03/24,02:50,2.4,4.3,4.8,4.3,4.5,2.0,2.5,2.7,�쐼,1.7,��
2014/03/24,03:00,2.4,4.3,4.8,4.3,4.5,2.0,2.5,2.7,��쐼,1.1,��
2014/03/24,03:10,2.4,4.3,4.8,4.3,4.5,2.0,2.5,2.7,��쐼,1.8,��
2014/03/24,03:20,2.4,4.3,4.8,4.3,4.5,2.0,2.5,2.7,�쐼,1.7,��
2014/03/24,03:30,2.4,4.3,4.8,4.3,4.5,2.0,2.5,2.7,��,0.6,��
2014/03/24,03:40,2.4,4.3,4.8,4.3,4.5,2.0,2.5,2.7,���쐼,0.8,��
2014/03/24,03:50,2.4,4.3,4.8,4.3,4.5,2.0,2.5,2.7,���쐼,0.7,��
2014/03/24,04:00,2.4,4.3,4.8,4.3,4.5,2.0,2.5,2.7,-,CALM,��
2014/03/24,04:10,2.4,4.3,4.8,4.3,4.5,2.0,2.5,2.7,-,CALM,��
2014/03/24,04:20,2.4,4.3,4.8,4.3,4.5,2.0,2.5,2.7,-,CALM,��
2014/03/24,04:30,2.4,4.3,4.8,4.3,4.5,2.0,2.5,2.7,�쐼,0.7,��
2014/03/24,04:40,2.4,4.3,4.8,4.3,4.5,2.0,2.5,2.7,��,0.7,��
2014/03/24,04:50,2.4,4.3,4.8,4.3,4.5,2.0,2.5,2.7,��쐼,1.0,��
2014/03/24,05:00,2.4,4.3,4.8,4.3,4.5,2.0,2.5,2.7,-,CALM,��
2014/03/24,05:10,2.4,4.3,4.8,4.3,4.5,2.0,2.5,2.7,��,1.8,��
2014/03/24,05:20,2.4,4.3,4.8,4.3,4.5,2.0,2.5,2.7,��쐼,2.0,��
2014/03/24,05:30,2.4,4.3,4.8,4.3,4.5,2.0,2.5,2.7,��쐼,2.8,��
2014/03/24,05:40,2.4,4.3,4.8,4.3,4.5,2.0,2.5,2.7,��쐼,2.1,��
2014/03/24,05:50,2.4,4.3,4.8,4.3,4.5,2.0,2.5,2.7,��쐼,2.3,��
2014/03/24,06:00,2.4,4.3,4.8,4.3,4.5,2.0,2.5,2.7,�쐼,1.5,��
2014/03/24,06:10,2.4,4.3,4.8,4.3,4.5,2.0,2.5,2.7,��쐼,2.6,��
2014/03/24,06:20,2.4,4.3,4.8,4.3,4.5,2.0,2.5,2.7,�쐼,2.2,��
2014/03/24,06:30,2.4,4.3,4.8,4.3,4.5,2.0,2.5,2.7,�쐼,2.9,��
2014/03/24,06:40,2.4,4.3,4.8,4.3,4.5,2.0,2.5,2.7,�쐼,3.1,��
2014/03/24,06:50,2.4,4.3,4.8,4.3,4.5,2.0,2.5,2.7,��쐼,4.0,��
2014/03/24,07:00,2.4,4.3,4.8,4.3,4.5,2.0,2.5,2.7,�쐼,4.5,��
2014/03/24,07:10,2.4,4.3,4.8,4.3,4.5,2.0,2.5,2.7,�쐼,5.2,��
2014/03/24,07:20,2.4,4.3,4.8,4.3,4.5,2.0,2.5,2.7,�쐼,6.3,��
2014/03/24,07:30,2.4,4.3,4.8,4.3,4.5,2.0,2.5,2.7,�쐼,5.2,��
2014/03/24,07:40,2.4,4.3,4.9,4.3,4.5,2.0,2.5,2.7,���쐼,5.1,��
2014/03/24,07:50,2.4,4.3,4.9,4.3,4.5,2.0,2.5,2.7,���쐼,4.3,��
2014/03/24,08:00,2.4,4.3,4.9,4.4,4.5,2.0,2.5,2.7,���쐼,3.9,��
2014/03/24,08:10,2.4,4.3,4.9,4.4,4.6,2.0,2.5,2.7,���쐼,3.4,��
2014/03/24,08:20,2.4,4.3,4.9,4.4,4.6,2.0,2.5,2.7,���쐼,2.3,��
2014/03/24,08:30,2.4,4.3,4.9,4.4,4.6,2.0,2.5,2.7,��,2.4,��
2014/03/24,08:40,2.4,4.3,4.9,4.4,4.6,2.0,2.5,2.7,���k��,2.7,��
2014/03/24,08:50,2.4,4.3,4.9,4.4,4.6,2.0,2.5,2.7,��,2.4,��
2014/03/24,09:00,2.4,4.3,4.9,4.4,4.6,2.0,2.5,2.7,���k��,2.1,��
2014/03/24,09:10,2.4,4.3,4.9,4.4,4.6,2.0,2.5,2.7,���쐼,0.8,��
2014/03/24,09:20,2.4,4.3,4.9,4.4,4.6,2.0,2.5,2.7,���쓌,1.1,��
2014/03/24,09:30,2.4,4.4,4.9,4.4,4.6,2.0,2.5,2.7,��,1.6,��
2014/03/24,09:40,2.4,4.4,4.9,4.4,-,2.0,2.5,2.7,�쓌,1.7,��
2014/03/24,09:50,2.4,4.4,4.9,4.4,-,2.0,2.5,2.7,��,1.6,��
2014/03/24,10:00,2.4,4.4,4.9,4.4,-,2.0,2.5,2.7,���쐼,3.2,��
2014/03/24,10:10,2.4,4.4,4.9,4.4,-,2.0,2.5,2.7,��,2.9,��
2014/03/24,10:20,2.4,4.4,4.9,4.4,-,2.0,2.5,2.7,���쐼,2.7,��
2014/03/24,10:30,2.4,4.4,4.9,4.4,-,2.0,2.5,2.7,���k��,5.7,��
2014/03/24,10:40,2.4,4.4,4.9,4.4,-,2.0,2.5,2.7,��,4.9,��
2014/03/24,10:50,2.4,4.4,4.9,4.4,-,2.0,2.5,2.7,��,6.4,��
2014/03/24,11:00,2.4,4.4,4.9,4.4,-,2.0,2.5,2.7,�k��,6.3,��
2014/03/24,11:10,2.4,4.4,4.9,4.4,-,2.0,2.5,2.7,��,6.5,��
2014/03/24,11:20,2.4,4.4,4.9,4.4,-,2.0,2.5,2.7,���쐼,5.2,��
2014/03/24,11:30,2.4,4.4,4.9,4.4,-,2.0,2.5,2.8,��,5.6,��
2014/03/24,11:40,2.4,4.4,4.9,4.4,-,2.0,2.5,2.7,��,3.3,��
2014/03/24,11:50,2.4,4.4,4.9,4.4,-,2.0,2.5,2.7,��,6.0,��
2014/03/24,12:00,2.4,4.4,4.9,4.4,-,2.0,2.5,2.8,���k��,5.5,��
2014/03/24,12:10,2.4,4.4,4.9,4.4,-,2.0,2.5,2.7,��,7.2,��
2014/03/24,12:20,2.4,4.4,4.9,4.4,-,2.0,2.5,2.7,��,4.6,��
2014/03/24,12:30,2.4,4.4,4.9,4.4,-,2.0,2.5,2.8,��,5.1,��
2014/03/24,12:40,2.4,4.4,4.9,4.4,-,2.0,2.5,2.7,���쐼,5.5,��
2014/03/24,12:50,2.4,4.4,4.9,4.4,-,2.0,2.5,2.8,��,6.5,��
2014/03/24,13:00,2.4,4.4,4.9,4.4,-,2.0,2.5,2.7,���쐼,6.7,��
2014/03/24,13:10,2.4,4.4,4.9,4.4,-,2.0,2.5,2.7,���쐼,7.7,��
2014/03/24,13:20,2.4,4.4,4.9,4.4,-,2.0,2.5,2.8,���쐼,8.6,��
2014/03/24,13:30,2.4,4.4,4.9,4.4,-,2.0,2.5,2.8,��,7.9,��
2014/03/24,13:40,2.4,4.4,4.9,4.4,-,2.0,2.5,2.8,���쐼,6.6,��
2014/03/24,13:50,2.4,4.4,4.9,4.4,-,2.0,2.5,2.7,��,6.3,��
2014/03/24,14:00,2.4,4.4,4.9,4.4,-,2.0,2.5,2.7,��,7.1,��
2014/03/24,14:10,2.4,4.4,4.9,4.4,-,2.0,2.5,2.8,���쐼,6.1,��
2014/03/24,14:20,2.4,4.4,4.9,4.4,-,2.0,2.5,2.7,���쐼,6.3,��
2014/03/24,14:30,2.4,4.4,4.9,4.4,-,2.0,2.5,2.8,��,7.1,��
2014/03/24,14:40,2.4,4.4,4.9,4.4,-,2.0,2.5,2.7,���쐼,6.7,��
2014/03/24,14:50,2.4,4.4,4.9,4.4,-,2.0,2.5,2.7,���쐼,6.6,��
2014/03/24,15:00,2.4,4.4,4.9,4.4,-,2.0,2.5,2.7,��,9.3,��
2014/03/24,15:10,2.4,4.4,4.9,4.4,-,2.0,2.5,2.7,��,6.5,��
2014/03/24,15:20,2.4,4.4,4.9,4.4,-,2.0,2.5,2.7,���k��,7.4,��
2014/03/24,15:30,2.4,4.4,4.9,4.4,-,2.0,2.5,2.7,��,6.0,��
2014/03/24,15:40,2.4,4.4,4.9,4.4,-,2.0,2.5,2.7,��,7.2,��
2014/03/24,15:50,2.4,4.4,4.9,4.4,-,2.0,2.5,2.7,��,6.7,��
2014/03/24,16:00,2.4,4.4,4.9,4.4,-,2.0,2.5,2.7,���k��,6.8,��
2014/03/24,16:10,2.4,4.4,4.9,4.4,-,2.0,2.5,2.8,��,5.6,��
2014/03/24,16:20,2.4,4.4,4.9,4.4,-,2.0,2.5,2.8,���k��,6.1,��
2014/03/24,16:30,2.4,4.4,4.9,4.4,-,2.0,2.5,2.7,��,5.4,��
2014/03/24,16:40,2.4,4.4,4.9,4.4,-,2.0,2.5,2.8,���k��,3.7,��
2014/03/24,16:50,2.4,4.4,4.9,4.4,-,2.0,2.5,2.8,��쐼,2.4,��
2014/03/24,17:00,2.4,4.4,4.9,4.4,4.6,2.0,2.5,2.8,��,0.9,��
2014/03/24,17:10,2.4,4.4,4.9,4.4,4.6,2.0,2.5,2.8,��쓌,4.6,��
2014/03/24,17:20,2.4,4.4,4.9,4.4,4.6,2.0,2.5,2.8,��쓌,2.8,��
2014/03/24,17:30,2.4,4.4,4.9,4.4,4.6,2.0,2.5,2.8,��쓌,4.5,��
2014/03/24,17:40,2.4,4.4,4.9,4.4,4.6,2.0,2.5,2.7,��,5.2,��
2014/03/24,17:50,2.4,4.4,4.9,4.4,4.6,2.0,2.5,2.8,��,4.7,��
2014/03/24,18:00,2.4,4.4,4.9,4.4,4.6,2.0,2.5,2.8,��쐼,5.8,��
2014/03/24,18:10,2.4,4.4,4.9,4.4,4.6,2.0,2.5,2.8,��쐼,5.4,��
2014/03/24,18:20,2.4,4.4,4.9,4.4,4.6,2.0,2.5,2.7,��,5.8,��
2014/03/24,18:30,2.4,4.4,4.9,4.4,4.6,2.0,2.5,2.7,��쐼,5.4,��
2014/03/24,18:40,2.4,4.4,4.9,4.4,4.6,2.0,2.5,2.7,��쐼,6.1,��
2014/03/24,18:50,2.4,4.4,4.9,4.4,4.6,2.0,2.5,2.7,��,5.4,��
2014/03/24,19:00,2.4,4.4,4.9,4.4,4.6,2.0,2.5,2.7,��쐼,5.1,��
2014/03/24,19:10,2.4,4.4,4.9,4.4,4.6,2.0,2.5,2.7,��쐼,4.7,��
2014/03/24,19:20,2.4,4.4,4.9,4.4,4.6,2.0,2.5,2.7,��쐼,5.0,��
2014/03/24,19:30,2.4,4.4,4.9,4.4,4.6,2.0,2.5,2.7,��쐼,4.6,��
2014/03/24,19:40,2.4,4.4,4.9,4.4,4.6,2.0,2.5,2.8,��쐼,5.3,��
2014/03/24,19:50,2.4,4.4,4.9,4.4,4.6,2.0,2.5,2.7,��쐼,5.5,��
2014/03/24,20:00,2.4,4.4,4.9,4.4,4.6,2.0,2.5,2.8,��쐼,5.7,��
2014/03/24,20:10,2.4,4.4,4.9,4.4,4.6,2.0,2.5,2.7,��쐼,5.8,��
2014/03/24,20:20,2.4,4.4,4.9,4.4,4.6,2.0,2.5,2.8,��쐼,6.4,��
2014/03/24,20:30,2.4,4.4,4.9,4.4,4.6,2.0,2.5,2.8,��쐼,7.1,��
2014/03/24,20:40,2.4,4.4,4.9,4.4,4.6,2.0,2.5,2.8,��쐼,7.4,��
2014/03/24,20:50,2.4,4.4,4.9,4.4,4.6,2.0,2.5,2.8,��쐼,7.5,��
2014/03/24,21:00,2.4,4.4,4.9,4.4,4.6,2.0,2.5,2.8,�쐼,7.7,��
2014/03/24,21:10,2.4,4.4,4.9,4.4,4.6,2.0,2.5,2.8,�쐼,7.4,��
2014/03/24,21:20,2.4,4.4,4.9,4.4,4.6,2.0,2.5,2.8,�쐼,8.5,��
2014/03/24,21:30,2.4,4.4,4.9,4.4,4.6,2.0,2.5,2.8,�쐼,8.3,��
2014/03/24,21:40,2.4,4.4,4.9,4.4,4.6,2.0,2.5,2.7,�쐼,8.2,��
2014/03/24,21:50,2.4,4.4,4.9,4.4,4.6,2.0,2.5,2.7,�쐼,7.1,��
2014/03/24,22:00,2.4,4.4,4.9,4.4,4.6,2.0,2.5,2.7,�쐼,6.2,��
2014/03/24,22:10,2.4,4.4,4.9,4.4,4.6,2.0,2.5,2.8,�쐼,5.1,��
2014/03/24,22:20,2.4,4.4,4.9,4.4,4.6,2.0,2.5,2.8,��쐼,4.9,��
2014/03/24,22:30,2.4,4.4,4.9,4.4,4.6,2.0,2.5,2.8,��,5.4,��
2014/03/24,22:40,2.4,4.4,4.9,4.4,4.6,2.0,2.5,2.8,��,4.7,��
2014/03/24,22:50,2.4,4.4,4.9,4.4,4.6,2.0,2.5,2.7,��쐼,5.4,��
2014/03/24,23:00,2.4,4.4,4.9,4.4,4.6,2.0,2.5,2.7,��,5.5,��
2014/03/24,23:10,2.4,4.4,4.9,4.4,4.6,2.0,2.5,2.8,��쐼,6.0,��
2014/03/24,23:20,2.4,4.4,4.9,4.4,4.6,2.0,2.5,2.7,��쐼,5.3,��
2014/03/24,23:30,2.4,4.4,4.9,4.4,4.6,2.0,2.5,2.8,�쐼,5.3,��
2014/03/24,23:40,2.4,4.4,4.9,4.4,4.6,2.0,2.5,2.8,��쐼,4.5,��
2014/03/24,23:50,2.4,4.4,4.9,4.4,4.6,2.0,2.5,2.8,�쐼,3.7,��
